When you browse on this site, cookies collect data to enhance your experience and personalize the content and advertising you see.
Visit our Privacy Policy to learn more. By continuing to use the site, you agree to this use of cookies and data.
  • En España
  • Lista de países
  • Para 7 días
  • Temperatura del agua
  • El tiempo en el mapa
  • Informadores
  • user-avatar
    Iniciar sesión

    Tiempo cada hora Ipswich

    Hoy, 22 Septiembre, Domingo

    Tiempo Temperatura Precipitaciones Viento Presión Humedad
    00:00 +18°C° 0 mm 4 mps 754 mmHg 77%
    01:00 +18°C° 0 mm 4 mps 754 mmHg 79%
    02:00 +18°C° 0 mm 4 mps 753 mmHg 81%
    03:00 +18°C° 0 mm 4 mps 753 mmHg 83%
    04:00 +18°C° 0 mm 4 mps 752 mmHg 83%
    05:00 +18°C° 0 mm 4 mps 752 mmHg 82%
    06:00 +18°C° 0 mm 4 mps 752 mmHg 82%
    07:00 +19°C° 0.2 mm 4 mps 752 mmHg 79%
    08:00 +20°C° 0.2 mm 5 mps 752 mmHg 76%
    09:00 +21°C° 0.2 mm 5 mps 752 mmHg 72%
    10:00 +22°C° 0.1 mm 5 mps 752 mmHg 70%
    11:00 +23°C° 0.1 mm 5 mps 751 mmHg 68%
    12:00 +25°C° 0.1 mm 5 mps 751 mmHg 65%
    13:00 +23°C° 1.1 mm 6 mps 751 mmHg 71%
    14:00 +21°C° 1.1 mm 6 mps 751 mmHg 76%
    15:00 +20°C° 1.1 mm 7 mps 751 mmHg 81%
    16:00 +19°C° 0.8 mm 6 mps 752 mmHg 83%
    17:00 +19°C° 0.8 mm 5 mps 752 mmHg 85%
    18:00 +17°C° 0.8 mm 5 mps 752 mmHg 86%
    19:00 +17°C° 0 mm 4 mps 753 mmHg 86%
    20:00 +17°C° 0 mm 4 mps 753 mmHg 85%
    21:00 +17°C° 0 mm 4 mps 753 mmHg 85%
    22:00 +15°C° 0 mm 4 mps 754 mmHg 86%
    23:00 +15°C° 0 mm 4 mps 754 mmHg 86%

    Mañana, 23 Septiembre, Lunes

    Tiempo Temperatura Precipitaciones Viento Presión Humedad
    00:00 +15°C° 0 mm 4 mps 754 mmHg 87%
    01:00 +15°C° 0 mm 4 mps 754 mmHg 89%
    02:00 +14°C° 0 mm 4 mps 754 mmHg 90%
    03:00 +14°C° 0 mm 4 mps 754 mmHg 92%
    04:00 +13°C° 0 mm 5 mps 755 mmHg 92%
    05:00 +13°C° 0 mm 5 mps 755 mmHg 93%
    06:00 +13°C° 0 mm 5 mps 755 mmHg 93%
    07:00 +14°C° 0 mm 6 mps 756 mmHg 88%
    08:00 +14°C° 0 mm 6 mps 756 mmHg 83%
    09:00 +15°C° 0 mm 6 mps 757 mmHg 78%
    10:00 +17°C° 0 mm 6 mps 757 mmHg 70%
    11:00 +19°C° 0 mm 6 mps 757 mmHg 62%
    12:00 +20°C° 0 mm 6 mps 757 mmHg 54%
    13:00 +20°C° 0 mm 6 mps 757 mmHg 53%
    14:00 +21°C° 0 mm 6 mps 757 mmHg 53%
    15:00 +21°C° 0 mm 6 mps 757 mmHg 52%
    16:00 +20°C° 0 mm 6 mps 757 mmHg 58%
    17:00 +17°C° 0 mm 6 mps 757 mmHg 64%
    18:00 +16°C° 0 mm 6 mps 756 mmHg 70%
    19:00 +16°C° 0.4 mm 6 mps 756 mmHg 75%
    20:00 +15°C° 0.4 mm 6 mps 756 mmHg 80%
    21:00 +15°C° 0.4 mm 7 mps 756 mmHg 85%
    22:00 +15°C° 0.5 mm 7 mps 756 mmHg 85%
    23:00 +15°C° 0.5 mm 8 mps 755 mmHg 86%

    Pasado mañana, 24 Septiembre, Martes

    Tiempo Temperatura Precipitaciones Viento Presión Humedad
    00:00 +15°C° 0.5 mm 8 mps 755 mmHg 87%
    01:00 +16°C° 0.2 mm 8 mps 754 mmHg 88%
    02:00 +16°C° 0.2 mm 7 mps 754 mmHg 88%
    03:00 +16°C° 0.2 mm 7 mps 753 mmHg 89%
    04:00 +16°C° 0.2 mm 7 mps 753 mmHg 89%
    05:00 +16°C° 0.2 mm 8 mps 752 mmHg 90%
    06:00 +16°C° 0.2 mm 8 mps 752 mmHg 90%
    07:00 +17°C° 0.2 mm 8 mps 751 mmHg 89%
    08:00 +17°C° 0.2 mm 9 mps 751 mmHg 88%
    09:00 +17°C° 0.2 mm 9 mps 750 mmHg 87%
    10:00 +17°C° 0.8 mm 9 mps 750 mmHg 87%
    11:00 +16°C° 0.8 mm 10 mps 749 mmHg 88%
    12:00 +16°C° 0.8 mm 10 mps 749 mmHg 88%
    13:00 +17°C° 0.5 mm 9 mps 749 mmHg 82%
    14:00 +18°C° 0.5 mm 7 mps 748 mmHg 75%
    15:00 +20°C° 0.5 mm 6 mps 748 mmHg 69%
    16:00 +19°C° 0.1 mm 6 mps 748 mmHg 73%
    17:00 +17°C° 0.1 mm 5 mps 748 mmHg 76%
    18:00 +16°C° 0.1 mm 5 mps 748 mmHg 80%
    19:00 +15°C° 0 mm 5 mps 749 mmHg 82%
    20:00 +15°C° 0 mm 6 mps 749 mmHg 84%
    21:00 +15°C° 0 mm 6 mps 750 mmHg 86%
    22:00 +15°C° 0 mm 6 mps 749 mmHg 85%
    23:00 +15°C° 0 mm 6 mps 749 mmHg 85%

    25 Septiembre, Miércoles

    Tiempo Temperatura Precipitaciones Viento Presión Humedad
    00:00 +14°C° 0 mm 6 mps 749 mmHg 84%
    01:00 +14°C° 0 mm 6 mps 749 mmHg 84%
    02:00 +14°C° 0 mm 6 mps 749 mmHg 84%
    03:00 +14°C° 0 mm 6 mps 749 mmHg 85%
    04:00 +14°C° 0.4 mm 6 mps 749 mmHg 86%
    05:00 +14°C° 0.4 mm 6 mps 748 mmHg 87%
    06:00 +14°C° 0.4 mm 7 mps 748 mmHg 89%
    07:00 +14°C° 0.1 mm 6 mps 749 mmHg 87%
    08:00 +14°C° 0.1 mm 6 mps 749 mmHg 86%
    09:00 +14°C° 0.1 mm 6 mps 749 mmHg 85%
    10:00 +15°C° 0.1 mm 6 mps 749 mmHg 83%
    11:00 +16°C° 0.1 mm 6 mps 750 mmHg 82%
    12:00 +17°C° 0.1 mm 7 mps 750 mmHg 80%
    13:00 +17°C° 0.1 mm 6 mps 750 mmHg 78%
    14:00 +17°C° 0.1 mm 6 mps 750 mmHg 76%
    15:00 +19°C° 0.1 mm 6 mps 750 mmHg 74%
    16:00 +17°C° 0 mm 6 mps 750 mmHg 78%
    17:00 +16°C° 0 mm 6 mps 750 mmHg 81%
    18:00 +16°C° 0 mm 6 mps 751 mmHg 85%
    19:00 +16°C° 0 mm 5 mps 751 mmHg 86%
    20:00 +15°C° 0 mm 5 mps 751 mmHg 86%
    21:00 +15°C° 0 mm 5 mps 751 mmHg 87%
    22:00 +15°C° 0.1 mm 5 mps 751 mmHg 89%
    23:00 +16°C° 0.1 mm 5 mps 751 mmHg 91%

    26 Septiembre, Jueves

    Tiempo Temperatura Precipitaciones Viento Presión Humedad
    00:00 +16°C° 0.1 mm 6 mps 750 mmHg 93%
    01:00 +16°C° 0.7 mm 6 mps 750 mmHg 91%
    02:00 +16°C° 0.7 mm 6 mps 750 mmHg 90%
    03:00 +16°C° 0.7 mm 6 mps 750 mmHg 88%
    04:00 +16°C° 0 mm 7 mps 750 mmHg 86%
    05:00 +16°C° 0 mm 7 mps 750 mmHg 85%
    06:00 +16°C° 0 mm 7 mps 750 mmHg 83%
    07:00 +16°C° 0.3 mm 8 mps 750 mmHg 85%
    08:00 +16°C° 0.3 mm 8 mps 751 mmHg 86%
    09:00 +16°C° 0.3 mm 8 mps 751 mmHg 88%
    10:00 +16°C° 0.9 mm 8 mps 751 mmHg 87%
    11:00 +17°C° 0.9 mm 9 mps 751 mmHg 86%
    12:00 +17°C° 0.9 mm 9 mps 751 mmHg 85%
    13:00 +17°C° 0.2 mm 9 mps 750 mmHg 80%
    14:00 +18°C° 0.2 mm 9 mps 750 mmHg 75%
    15:00 +18°C° 0.2 mm 8 mps 750 mmHg 70%
    16:00 +17°C° 0.1 mm 8 mps 750 mmHg 72%
    17:00 +16°C° 0.1 mm 7 mps 750 mmHg 74%
    18:00 +15°C° 0.1 mm 7 mps 750 mmHg 76%
    19:00 +14°C° 0 mm 7 mps 751 mmHg 78%
    20:00 +14°C° 0 mm 7 mps 751 mmHg 79%
    21:00 +12°C° 0 mm 7 mps 751 mmHg 81%
    22:00 +13°C° 0 mm 6 mps 751 mmHg 82%
    23:00 +13°C° 0 mm 6 mps 751 mmHg 84%

    27 Septiembre, Viernes

    Tiempo Temperatura Precipitaciones Viento Presión Humedad
    00:00 +13°C° 0 mm 6 mps 751 mmHg 85%
    01:00 +11°C° 0 mm 6 mps 751 mmHg 85%
    02:00 +11°C° 0 mm 6 mps 751 mmHg 86%
    03:00 +12°C° 0 mm 5 mps 751 mmHg 86%
    04:00 +11°C° 0 mm 6 mps 751 mmHg 86%
    05:00 +11°C° 0 mm 6 mps 751 mmHg 86%
    06:00 +11°C° 0 mm 6 mps 751 mmHg 86%
    07:00 +13°C° 0.1 mm 6 mps 751 mmHg 82%
    08:00 +14°C° 0.1 mm 6 mps 752 mmHg 78%
    09:00 +15°C° 0.1 mm 7 mps 752 mmHg 73%
    10:00 +16°C° 0.1 mm 7 mps 752 mmHg 68%
    11:00 +17°C° 0.1 mm 7 mps 752 mmHg 63%
    12:00 +18°C° 0.1 mm 7 mps 752 mmHg 58%
    13:00 +18°C° 0 mm 7 mps 752 mmHg 57%
    14:00 +18°C° 0 mm 8 mps 752 mmHg 56%
    15:00 +18°C° 0 mm 8 mps 752 mmHg 55%
    16:00 +17°C° 0 mm 7 mps 752 mmHg 60%
    17:00 +16°C° 0 mm 7 mps 752 mmHg 65%
    18:00 +15°C° 0 mm 7 mps 752 mmHg 70%
    19:00 +14°C° 0 mm 7 mps 752 mmHg 73%
    20:00 +14°C° 0 mm 7 mps 752 mmHg 75%
    21:00 +14°C° 0 mm 7 mps 753 mmHg 78%
    22:00 +14°C° 0 mm 7 mps 752 mmHg 77%
    23:00 +14°C° 0 mm 7 mps 752 mmHg 77%
    Mostrar más